ECISR LEIG-LECD

Flight info

Callsign ECISR
Flight time 0h 50m
Altitude 12000
Route VFR ULM ROUTE LEIG/LEMM/LECD
Aircraft FDCT/L-L/7000

Departure

Time 2026-05-07 14:02
Airport Igualada/Odena Airfield (LEIG)

Arrival

Time 2026-05-07 14:52
Airport La Cerdanya Airfield (LECD)
Time Latitude Longitude Altitude Speed Heading
2026-05-07 13:51 41.58346 1.65405 1082 ft 0 kts 345°
2026-05-07 13:52 41.58363 1.65395 1083 ft 8 kts 328°
2026-05-07 13:53 41.58411 1.65342 1085 ft 6 kts 301°
2026-05-07 13:53 41.58418 1.65291 1082 ft 9 kts 315°
2026-05-07 13:53 41.58506 1.65235 1089 ft 27 kts 340°
2026-05-07 13:53 41.58679 1.65146 1101 ft 24 kts 338°
2026-05-07 13:54 41.58753 1.65096 1108 ft 11 kts 318°
2026-05-07 13:54 41.58802 1.65062 1111 ft 4 kts 340°
2026-05-07 13:54 41.58823 1.65052 1112 ft 0 kts 66°
2026-05-07 13:55 41.58347 1.65404 1112 ft 13 kts 345°
2026-05-07 13:56 41.58349 1.65403 1082 ft 1 kts 343°
2026-05-07 13:57 41.58490 1.65277 1088 ft 30 kts 329°
2026-05-07 13:57 41.58640 1.65167 1097 ft 21 kts 335°
2026-05-07 13:57 41.58750 1.65099 1107 ft 15 kts 320°
2026-05-07 13:57 41.58805 1.65046 1111 ft 7 kts 325°
2026-05-07 13:58 41.58814 1.65051 1112 ft 0 kts 122°
2026-05-07 14:01 41.58778 1.65100 1110 ft 13 kts 161°
2026-05-07 14:01 41.58686 1.65145 1102 ft 24 kts 157°
2026-05-07 14:01 41.58400 1.65292 1235 ft 47 kts 156°
2026-05-07 14:01 41.58093 1.65469 1559 ft 49 kts 153°
2026-05-07 14:02 41.57684 1.65704 1731 ft 70 kts 154°
2026-05-07 14:02 41.57268 1.65954 1989 ft 61 kts 155°
2026-05-07 14:02 41.57121 1.66454 2121 ft 76 kts 86°
2026-05-07 14:02 41.57329 1.67123 2157 ft 85 kts 51°
2026-05-07 14:03 41.57850 1.67515 2090 ft 83 kts 31°
2026-05-07 14:03 41.58346 1.67849 2126 ft 79 kts 35°
2026-05-07 14:03 41.58849 1.68097 2169 ft 76 kts 28°
2026-05-07 14:03 41.59427 1.68226 2215 ft 80 kts 14°
2026-05-07 14:04 41.59780 1.68665 2310 ft 76 kts 68°
2026-05-07 14:04 41.60079 1.69251 2394 ft 74 kts 66°
2026-05-07 14:04 41.60349 1.69820 2420 ft 70 kts 72°
2026-05-07 14:04 41.60574 1.70417 2496 ft 73 kts 75°
2026-05-07 14:05 41.60755 1.71097 2592 ft 82 kts 86°
2026-05-07 14:05 41.60916 1.71827 2640 ft 84 kts 79°
2026-05-07 14:05 41.61013 1.72526 2724 ft 71 kts 109°
2026-05-07 14:05 41.60828 1.73145 2732 ft 81 kts 122°
2026-05-07 14:06 41.60520 1.73884 2734 ft 96 kts 126°
2026-05-07 14:06 41.60190 1.74638 2821 ft 92 kts 128°
2026-05-07 14:06 41.59862 1.75388 2855 ft 95 kts 123°
2026-05-07 14:06 41.59543 1.76189 2887 ft 98 kts 121°
2026-05-07 14:07 41.59228 1.77017 2859 ft 102 kts 124°
2026-05-07 14:07 41.58921 1.77848 2862 ft 96 kts 120°
2026-05-07 14:07 41.58641 1.78637 2857 ft 94 kts 120°
2026-05-07 14:07 41.58379 1.79474 2766 ft 100 kts 118°
2026-05-07 14:08 41.58107 1.80320 2722 ft 96 kts 117°
2026-05-07 14:08 41.57823 1.81131 2728 ft 96 kts 118°
2026-05-07 14:08 41.57534 1.81939 2698 ft 98 kts 120°
2026-05-07 14:08 41.57228 1.82762 2678 ft 98 kts 120°
2026-05-07 14:09 41.56935 1.83564 2692 ft 94 kts 120°
2026-05-07 14:09 41.56684 1.84355 2565 ft 94 kts 122°
2026-05-07 14:09 41.56481 1.85191 2526 ft 97 kts 99°
2026-05-07 14:09 41.56642 1.86081 2555 ft 105 kts 65°
2026-05-07 14:10 41.57126 1.86832 2543 ft 108 kts 46°
2026-05-07 14:10 41.57758 1.87375 2501 ft 108 kts 38°
2026-05-07 14:10 41.58402 1.87853 2492 ft 107 kts 33°
2026-05-07 14:10 41.59060 1.88302 2448 ft 105 kts 38°
2026-05-07 14:11 41.59689 1.88755 2405 ft 100 kts 39°
2026-05-07 14:11 41.60309 1.89167 2412 ft 99 kts 32°
2026-05-07 14:11 41.60929 1.89572 2438 ft 100 kts 33°
2026-05-07 14:11 41.61600 1.89850 2466 ft 100 kts 18°
2026-05-07 14:12 41.62303 1.89993 2381 ft 102 kts
2026-05-07 14:12 41.63012 1.90107 2369 ft 102 kts 11°
2026-05-07 14:12 41.63718 1.90225 2323 ft 102 kts 13°
2026-05-07 14:12 41.64424 1.90297 2339 ft 102 kts 11°
2026-05-07 14:13 41.65124 1.90446 2318 ft 102 kts 21°
2026-05-07 14:13 41.65803 1.90741 2274 ft 105 kts 22°
2026-05-07 14:13 41.66448 1.91056 2371 ft 91 kts 28°
2026-05-07 14:13 41.66995 1.91324 2643 ft 80 kts 23°
2026-05-07 14:14 41.67563 1.91570 2841 ft 90 kts 28°
2026-05-07 14:14 41.68098 1.91852 3169 ft 78 kts 35°
2026-05-07 14:14 41.68545 1.92198 3307 ft 74 kts 50°
2026-05-07 14:14 41.68842 1.92768 3489 ft 78 kts 71°
2026-05-07 14:15 41.69050 1.93434 3679 ft 78 kts 71°
2026-05-07 14:15 41.69313 1.94090 3830 ft 84 kts 62°
2026-05-07 14:15 41.69641 1.94721 3977 ft 85 kts 53°
2026-05-07 14:15 41.70058 1.95356 4012 ft 96 kts 51°
2026-05-07 14:16 41.70534 1.96041 4029 ft 105 kts 49°
2026-05-07 14:16 41.71057 1.96790 3918 ft 112 kts 49°
2026-05-07 14:16 41.71574 1.97568 3881 ft 109 kts 51°
2026-05-07 14:16 41.72067 1.98322 3879 ft 107 kts 51°
2026-05-07 14:17 41.72586 1.99012 3908 ft 103 kts 40°
2026-05-07 14:17 41.73162 1.99573 3889 ft 103 kts 39°
2026-05-07 14:17 41.73747 2.00145 3863 ft 105 kts 39°
2026-05-07 14:17 41.74320 2.00734 3880 ft 103 kts 45°
2026-05-07 14:18 41.74816 2.01435 3856 ft 104 kts 52°
2026-05-07 14:18 41.75255 2.02134 3870 ft 103 kts 55°
2026-05-07 14:18 41.75727 2.02854 3842 ft 104 kts 52°
2026-05-07 14:18 41.76258 2.03591 3778 ft 114 kts 51°
2026-05-07 14:19 41.76824 2.04340 3784 ft 115 kts 47°
2026-05-07 14:19 41.77388 2.05114 3627 ft 119 kts 53°
2026-05-07 14:19 41.77954 2.05945 3417 ft 123 kts 52°
2026-05-07 14:19 41.78526 2.06792 3301 ft 114 kts 54°
2026-05-07 14:20 41.78948 2.07559 3231 ft 92 kts 67°
2026-05-07 14:20 41.79223 2.08262 3143 ft 76 kts 71°
2026-05-07 14:20 41.79436 2.08935 3037 ft 85 kts 75°
2026-05-07 14:20 41.79522 2.09786 2992 ft 99 kts 90°
2026-05-07 14:21 41.79539 2.10742 2805 ft 107 kts 92°
2026-05-07 14:21 41.79708 2.11557 2766 ft 88 kts 52°
2026-05-07 14:21 41.80269 2.11898 2797 ft 81 kts 20°
2026-05-07 14:21 41.80775 2.12023 2762 ft 73 kts 12°
2026-05-07 14:22 41.81252 2.12065 2732 ft 61 kts 347°
2026-05-07 14:22 41.81408 2.11632 2619 ft 56 kts 247°
2026-05-07 14:22 41.81124 2.11382 2539 ft 47 kts 181°
2026-05-07 14:22 41.80832 2.11365 2457 ft 43 kts 178°
2026-05-07 14:23 41.80560 2.11315 2347 ft 41 kts 177°
2026-05-07 14:23 41.80262 2.11257 2284 ft 46 kts 181°
2026-05-07 14:23 41.79996 2.11209 2242 ft 20 kts 182°
2026-05-07 14:23 41.79878 2.11186 2253 ft 17 kts 191°
2026-05-07 14:24 41.79816 2.11167 2260 ft 0 kts 195°
2026-05-07 14:24 41.79848 2.11177 2256 ft 19 kts
2026-05-07 14:24 41.80023 2.11206 2238 ft 27 kts 15°
2026-05-07 14:24 41.80129 2.11234 2242 ft 14 kts 10°
2026-05-07 14:25 41.80203 2.11254 2253 ft 2 kts 25°
2026-05-07 14:25 41.80224 2.11263 2254 ft 0 kts 357°
2026-05-07 14:25 41.80223 2.11263 2254 ft 0 kts 357°
2026-05-07 14:25 41.80221 2.11251 2254 ft 3 kts 192°
2026-05-07 14:26 41.80113 2.11232 2249 ft 45 kts 187°
2026-05-07 14:26 41.79800 2.11176 2450 ft 45 kts 182°
2026-05-07 14:26 41.79456 2.11108 2621 ft 50 kts 180°
2026-05-07 14:26 41.79057 2.11048 2698 ft 69 kts 184°
2026-05-07 14:27 41.78631 2.11300 2768 ft 73 kts 111°
2026-05-07 14:27 41.78659 2.11971 2868 ft 78 kts 84°
2026-05-07 14:27 41.79139 2.12219 2818 ft 93 kts 344°
2026-05-07 14:27 41.79743 2.11981 2797 ft 86 kts 353°
2026-05-07 14:28 41.80296 2.12068 2840 ft 82 kts 12°
2026-05-07 14:28 41.80864 2.11834 2926 ft 91 kts 314°
2026-05-07 14:28 41.81308 2.11273 3159 ft 83 kts 311°
2026-05-07 14:28 41.81726 2.10725 3404 ft 84 kts 312°
2026-05-07 14:29 41.82218 2.10318 3668 ft 79 kts 334°
2026-05-07 14:29 41.82750 2.10097 3805 ft 83 kts 345°
2026-05-07 14:29 41.83351 2.09954 3870 ft 91 kts 349°
2026-05-07 14:29 41.83987 2.09822 3919 ft 91 kts 351°
2026-05-07 14:30 41.84649 2.09727 3884 ft 104 kts 354°
2026-05-07 14:30 41.85430 2.09629 3841 ft 120 kts 353°
2026-05-07 14:30 41.86260 2.09528 3833 ft 120 kts 355°
2026-05-07 14:30 41.87091 2.09425 3881 ft 120 kts 352°
2026-05-07 14:31 41.87912 2.09258 3889 ft 120 kts 346°
2026-05-07 14:31 41.88682 2.08922 3953 ft 114 kts 336°
2026-05-07 14:31 41.89427 2.08513 3992 ft 117 kts 335°
2026-05-07 14:31 41.90172 2.08040 3990 ft 119 kts 333°
2026-05-07 14:32 41.90899 2.07546 3928 ft 116 kts 330°
2026-05-07 14:32 41.91609 2.07049 3885 ft 117 kts 331°
2026-05-07 14:32 41.92352 2.06587 3878 ft 118 kts 333°
2026-05-07 14:32 41.93108 2.06145 3909 ft 120 kts 335°
2026-05-07 14:33 41.93888 2.05743 3947 ft 121 kts 338°
2026-05-07 14:33 41.94676 2.05376 3941 ft 118 kts 340°
2026-05-07 14:33 41.95451 2.05071 3924 ft 114 kts 345°
2026-05-07 14:33 41.96220 2.04835 3924 ft 112 kts 347°
2026-05-07 14:34 41.96972 2.04634 3953 ft 111 kts 349°
2026-05-07 14:34 41.97697 2.04448 3996 ft 103 kts 349°
2026-05-07 14:34 41.98405 2.04259 4002 ft 104 kts 348°
2026-05-07 14:34 41.99106 2.04032 4001 ft 103 kts 344°
2026-05-07 14:35 41.99781 2.03728 4051 ft 101 kts 338°
2026-05-07 14:35 42.00413 2.03351 4096 ft 99 kts 333°
2026-05-07 14:35 42.00976 2.02888 4187 ft 93 kts 323°
2026-05-07 14:35 42.01555 2.02443 4216 ft 97 kts 333°
2026-05-07 14:36 42.02166 2.02026 4209 ft 100 kts 335°
2026-05-07 14:36 42.02812 2.01680 4205 ft 100 kts 340°
2026-05-07 14:36 42.03464 2.01386 4229 ft 98 kts 344°
2026-05-07 14:36 42.04137 2.01246 4217 ft 101 kts 352°
2026-05-07 14:37 42.04846 2.01117 4239 ft 102 kts 351°
2026-05-07 14:37 42.06058 2.00726 4742 ft 93 kts 348°
2026-05-07 14:37 42.06674 2.00536 4998 ft 84 kts 345°
2026-05-07 14:38 42.07206 2.00345 5248 ft 77 kts 347°
2026-05-07 14:38 42.07761 2.00182 5382 ft 84 kts 347°
2026-05-07 14:38 42.08320 2.00030 5599 ft 79 kts 349°
2026-05-07 14:38 42.08858 1.99890 5788 ft 77 kts 346°
2026-05-07 14:39 42.09392 1.99758 5930 ft 80 kts 352°
2026-05-07 14:39 42.09927 1.99657 6102 ft 81 kts 348°
2026-05-07 14:39 42.10539 1.99520 6134 ft 95 kts 350°
2026-05-07 14:39 42.11203 1.99366 6252 ft 98 kts 346°
2026-05-07 14:40 42.11867 1.99121 6372 ft 100 kts 341°
2026-05-07 14:40 42.12508 1.98802 6506 ft 97 kts 335°
2026-05-07 14:40 42.13124 1.98399 6513 ft 107 kts 332°
2026-05-07 14:40 42.13768 1.97917 6617 ft 106 kts 327°
2026-05-07 14:41 42.14351 1.97409 6857 ft 87 kts 323°
2026-05-07 14:41 42.14824 1.96938 6978 ft 88 kts 325°
2026-05-07 14:41 42.15410 1.96603 7038 ft 95 kts 344°
2026-05-07 14:41 42.16043 1.96283 7100 ft 100 kts 323°
2026-05-07 14:42 42.16452 1.95526 7160 ft 99 kts 304°
2026-05-07 14:42 42.16983 1.94946 7237 ft 102 kts 334°
2026-05-07 14:42 42.17679 1.94675 7279 ft 106 kts 352°
2026-05-07 14:42 42.18419 1.94915 7218 ft 115 kts 22°
2026-05-07 14:43 42.19205 1.95130 7232 ft 117 kts 355°
2026-05-07 14:43 42.19724 1.94923 7179 ft 118 kts 331°
2026-05-07 14:43 42.20426 1.94374 7237 ft 112 kts 326°
2026-05-07 14:43 42.21075 1.93915 7405 ft 100 kts 331°
2026-05-07 14:44 42.21759 1.93733 7453 ft 106 kts
2026-05-07 14:44 42.22525 1.93746 7433 ft 113 kts 357°
2026-05-07 14:44 42.23543 1.93580 7536 ft 109 kts 348°
2026-05-07 14:44 42.24283 1.93419 7611 ft 108 kts 351°
2026-05-07 14:45 42.24783 1.93315 7685 ft 107 kts 348°
2026-05-07 14:45 42.25501 1.93171 7839 ft 99 kts 352°
2026-05-07 14:45 42.26150 1.93058 7953 ft 99 kts 353°
2026-05-07 14:45 42.26821 1.92902 8086 ft 93 kts 342°
2026-05-07 14:46 42.27428 1.92500 8069 ft 103 kts 333°
2026-05-07 14:46 42.28158 1.92196 7951 ft 119 kts 346°
2026-05-07 14:46 42.29017 1.92068 7763 ft 126 kts 355°
2026-05-07 14:46 42.29907 1.92030 7589 ft 130 kts 359°
2026-05-07 14:47 42.30798 1.92098 7468 ft 123 kts
2026-05-07 14:47 42.31604 1.92176 7416 ft 117 kts 357°
2026-05-07 14:47 42.32391 1.92204 7441 ft 110 kts 13°
2026-05-07 14:47 42.33160 1.92205 7357 ft 118 kts 345°
2026-05-07 14:48 42.33962 1.91821 7104 ft 127 kts 335°
2026-05-07 14:48 42.34796 1.91217 6468 ft 143 kts 322°
2026-05-07 14:48 42.35520 1.90385 6333 ft 132 kts 313°
2026-05-07 14:48 42.36213 1.89494 6032 ft 143 kts 317°
2026-05-07 14:49 42.36918 1.88603 5474 ft 133 kts 315°
2026-05-07 14:49 42.37561 1.87727 4802 ft 130 kts 308°
2026-05-07 14:49 42.38182 1.87069 4701 ft 101 kts 354°
2026-05-07 14:49 42.38710 1.87529 4517 ft 95 kts 55°
2026-05-07 14:50 42.39033 1.88238 4418 ft 82 kts 72°
2026-05-07 14:50 42.39243 1.88859 4334 ft 65 kts 65°
2026-05-07 14:50 42.39419 1.89372 4310 ft 60 kts 67°
2026-05-07 14:50 42.39716 1.89728 4276 ft 67 kts 354°
2026-05-07 14:51 42.40028 1.89441 4256 ft 59 kts 240°
2026-05-07 14:51 42.39779 1.89016 4192 ft 51 kts 231°
2026-05-07 14:51 42.39580 1.88622 4123 ft 53 kts 236°
2026-05-07 14:51 42.39393 1.88211 3996 ft 52 kts 240°
2026-05-07 14:52 42.39230 1.87779 3888 ft 49 kts 243°
2026-05-07 14:52 42.39085 1.87365 3785 ft 48 kts 236°
2026-05-07 14:52 42.38944 1.86967 3699 ft 47 kts 237°
2026-05-07 14:52 42.38831 1.86661 3669 ft 21 kts 242°
2026-05-07 14:53 42.38809 1.86600 3669 ft 1 kts 235°
2026-05-07 14:53 42.38809 1.86599 3669 ft 0 kts 235°